[[{"header":{"parameterUnit":"m.s-1","parameterCategory":1,"la1":30.2991,"la2":30.254,"lo1":-89.0895,"lo2":-89.0444,"dy":0.0017,"dx":0.0017,"nx":28,"ny":28,"refTime":"2024-06-03T09:00:00:Z","depth":0,"parameterNumber":2,"parameterNumberName":"U-component_of_WINDS"},"data":[0,0,0,0,0,0,0,0,0,0,0,0,0,0,0,0,0,0,0,0,0,0,0,0,0,0,0,0,0,0,0,0,0,0,0,0,0,0,0,0,0,0,0,0,0,0,0,0,0,0,0,0,0,0,0,0,0,0,0.3268,0.3268,0,0.3261,0.3261,0.3261,0.3278,0.3279,0.328,0.328,0.3272,0.3271,0.327,0,0,0,0,0,0,0,0,0,0,0,0,0,0.3293,0.3292,0.3268,0.3268,0.3268,0.3261,0.3261,0.3261,0.3278,0.3279,0.328,0.328,0.3272,0.3271,0.327,0,0,0,0,0,0,0,0,0,0,0,0,0,0.3284,0.3292,0.3268,0.3276,0.3276,0.3261,0.3261,0.3261,0.3278,0.3279,0.328,0.3281,0.3272,0.3271,0.327,0.3247,0,0,0.3267,0.3266,0,0,0,0,0,0,0,0,0.3284,0.3283,0.3275,0.3275,0.3276,0.3272,0.3267,0.3256,0.3278,0.3277,0.328,0.3281,0.3271,0.327,0.3267,0.3247,0.3246,0.3267,0.3266,0.3265,0.3265,0,0,0,0,0,0,0,0.3285,0.3283,0.3265,0.3274,0.3275,0.3279,0.3278,0.3265,0.327,0.3278,0.3279,0.3278,0.3271,0.3268,0.3267,0.3246,0.3267,0.3266,0.3265,0.3265,0.3204,0.3203,0,0,0,0,0,0,0.3285,0.3284,0.3266,0.3265,0.3282,0.3277,0.3277,0.3272,0.327,0.327,0.3277,0.3279,0.3269,0.3268,0.3267,0.3238,0.3265,0.3264,0.3264,0.3205,0.3204,0.3203,0,0,0,0,0,0,0.3285,0.3283,0.3266,0.3275,0.3273,0.3276,0.327,0.3272,0.3268,0.327,0.327,0.3273,0.327,0.3268,0.3251,0.3238,0.3264,0.3263,0.3206,0.3205,0.3204,0.3181,0,0,0,0,0,0,0.3286,0.3283,0.3275,0.3274,0.3272,0.3251,0.327,0.3271,0.3266,0.3268,0.3266,0.3266,0.327,0.3253,0.325,0.3237,0.3262,0.3208,0.3206,0.3204,0.3183,0.3179,0.3175,0,0,0,0,0,0.3287,0.3269,0.3275,0.3272,0.3262,0.3251,0.3249,0.3255,0.3265,0.3256,0.3257,0.3266,0.324,0.3251,0.3248,0.3234,0.3208,0.3206,0.3204,0.3184,0.3179,0.3175,0,0,0,0,0,0,0.3267,0.3269,0.3275,0.3257,0.3253,0.3253,0.3243,0.325,0.3243,0.3245,0.3252,0.3252,0.3233,0.3232,0.3244,0.3211,0.3226,0.3223,0.3212,0.3207,0.3203,0.3203,0.3261,0,0,0,0,0,0.3261,0.3252,0.3254,0.3237,0.3235,0.3239,0.3234,0.3239,0.3236,0.3234,0.3234,0.323,0.322,0.3214,0.3206,0.3183,0.3182,0.3172,0.3168,0.3165,0.3162,0.3148,0.3143,0.3196,0.3196,0.3196,0,0,0.3248,0.3248,0.3241,0.3233,0.3231,0.3221,0.3238,0.3227,0.3218,0.3232,0.3216,0.3216,0.3211,0.3191,0.3182,0.319,0.3147,0.3162,0.316,0.3158,0.3145,0.314,0.3136,0.3195,0.3195,0.3195,0,0,0.3218,0.3217,0.3203,0.32,0.3197,0.32,0.3196,0.3195,0.3195,0.3179,0.3189,0.3179,0.3163,0.3159,0.3155,0.3122,0.3129,0.3119,0.3099,0.3085,0.3081,0.3077,0.3063,0.3059,0.3116,0.3116,0.3116,0,0.3201,0.3186,0.3194,0.3181,0.3177,0.319,0.3174,0.3171,0.3165,0.3161,0.317,0.3149,0.3147,0.3125,0.3117,0.3114,0.3109,0.3119,0.3081,0.3077,0.3074,0.3061,0.3056,0.3115,0.3115,0.3115,0.3115,0,0.3165,0.3155,0.3143,0.3137,0.3131,0.3117,0.3122,0.3115,0.312,0.3121,0.3104,0.3102,0.3092,0.3088,0.3093,0.3066,0.307,0.308,0.3095,0.3067,0.3055,0.305,0.3113,0.3114,0.3114,0.3114,0,0,0.3122,0.312,0.3115,0.3112,0.3109,0.31,0.3086,0.3077,0.307,0.3066,0.3053,0.3039,0.3047,0.3043,0.3047,0.3035,0.3007,0.3046,0.3046,0.3037,0.2974,0.2965,0.2959,0.3012,0.3011,0.3011,0.2974,0,0.3091,0.3067,0.3073,0.3049,0.3038,0.305,0.3037,0.3033,0.3034,0.3024,0.3025,0.3014,0.3027,0.3024,0.3013,0.3013,0.2994,0.3016,0.2998,0.2998,0.2997,0.2953,0.2944,0.2909,0.2969,0.2968,0.2968,0,0.3051,0.3044,0.3019,0.3016,0.3012,0.3001,0.2992,0.2983,0.2978,0.298,0.2974,0.298,0.2965,0.2982,0.2959,0.2974,0.2967,0.2966,0.2965,0.2962,0.298,0.2947,0.2899,0.2893,0.2961,0.2961,0.2962,0,0.3019,0.3004,0.2987,0.2984,0.2981,0.2972,0.297,0.2967,0.296,0.2953,0.2948,0.2939,0.2933,0.2925,0.2928,0.2941,0.2905,0.2922,0.2903,0.2903,0.2894,0.2894,0.2842,0.2893,0.2893,0.2893,0.2894,0,0.2982,0.2966,0.2972,0.2961,0.2942,0.295,0.2931,0.293,0.2926,0.2914,0.2924,0.2913,0.2919,0.2907,0.291,0.289,0.2888,0.2887,0.2887,0.2885,0.2884,0.2879,0.2881,0.2892,0.2892,0.2893,0.2893,0,0.2943,0.2947,0.2928,0.2927,0.2926,0.2912,0.291,0.2899,0.2901,0.2886,0.2882,0.2884,0.2871,0.2874,0.286,0.2861,0.2835,0.284,0.2836,0.2837,0.2817,0.2818,0.2758,0.2749,0.2808,0.2808,0.2807,0,0.2918,0.2906,0.2903,0.2896,0.2893,0.2882,0.2875,0.2882,0.2874,0.2867,0.2856,0.2844,0.2835,0.2813,0.2812,0.28,0.2803,0.2783,0.2802,0.2799,0.28,0.28,0.2798,0.2779,0.2778,0.2777,0.2777,0,0.2873,0.2875,0.2866,0.2857,0.2849,0.2842,0.2836,0.2829,0.2834,0.2825,0.2812,0.2805,0.279,0.2776,0.2765,0.2763,0.2769,0.2771,0.2766,0.2762,0.276,0.2758,0.2824,0.2772,0.2773,0.2773,0.2773,0.2774,0.2839,0.2827,0.2823,0.2812,0.2808,0.2802,0.2791,0.2791,0.278,0.2768,0.2773,0.2757,0.2751,0.2737,0.2733,0.2719,0.2727,0.272,0.2717,0.2715,0.2711,0.2764,0.2718,0.2718,0.2718,0.2718,0.2718,0,0.2792,0.279,0.2779,0.277,0.2761,0.277,0.2763,0.2754,0.274,0.2735,0.2725,0.2708,0.2696,0.2694,0.2681,0.2671,0.2673,0.2667,0.2666,0.2665,0.2707,0.2711,0.2665,0.2665,0.2665,0.2665,0.2665,0.2665,0.2766,0.2747,0.2749,0.2727,0.2725,0.2709,0.2704,0.2698,0.2693,0.2675,0.2664,0.2663,0.2659,0.2645,0.2633,0.2633,0.2627,0.2618,0.2619,0.2657,0.2663,0.2668,0.2672,0.2617,0.2617,0.2578,0.2578,0.2577]},{"header":{"parameterUnit":"m.s-1","parameterCategory":1,"la1":30.2991,"la2":30.254,"lo1":-89.0895,"lo2":-89.0444,"dy":0.0017,"dx":0.0017,"nx":28,"ny":28,"refTime":"2024-06-03T09:00:00:Z","depth":0,"parameterNumber":3,"parameterNumberName":"V-component_of_WINDS"},"data":[0,0,0,0,0,0,0,0,0,0,0,0,0,0,0,0,0,0,0,0,0,0,0,0,0,0,0,0,0,0,0,0,0,0,0,0,0,0,0,0,0,0,0,0,0,0,0,0,0,0,0,0,0,0,0,0,0,0,1.9019,1.9019,0,1.904,1.9041,1.9041,1.9025,1.9024,1.9024,1.9023,1.9044,1.9045,1.9046,0,0,0,0,0,0,0,0,0,0,0,0,0,1.8963,1.8964,1.9019,1.9019,1.9019,1.904,1.9041,1.9041,1.9025,1.9024,1.9024,1.9023,1.9043,1.9045,1.9046,0,0,0,0,0,0,0,0,0,0,0,0,0,1.8986,1.8965,1.9019,1.9014,1.9014,1.904,1.9041,1.9041,1.9025,1.9024,1.9023,1.9022,1.9043,1.9044,1.9046,1.9078,0,0,1.9052,1.9052,0,0,0,0,0,0,0,0,1.8985,1.8988,1.9014,1.9014,1.9014,1.9029,1.9028,1.9053,1.9026,1.9021,1.9023,1.9022,1.9039,1.9041,1.9048,1.9079,1.908,1.9052,1.9053,1.9054,1.9054,0,0,0,0,0,0,0,1.8983,1.8987,1.9027,1.9015,1.9015,1.9011,1.9013,1.9033,1.9036,1.9021,1.902,1.9023,1.9039,1.9046,1.9048,1.908,1.9052,1.9053,1.9054,1.9055,1.9139,1.914,0,0,0,0,0,0,1.8982,1.8986,1.9027,1.9028,1.8997,1.9012,1.9015,1.9025,1.9035,1.9036,1.9024,1.9022,1.9043,1.9046,1.9049,1.9087,1.9054,1.9055,1.9056,1.9138,1.9139,1.9141,0,0,0,0,0,0,1.8981,1.8986,1.9026,1.9007,1.9011,1.9014,1.9026,1.9026,1.9033,1.9037,1.9038,1.903,1.9043,1.9046,1.9071,1.9087,1.9056,1.9058,1.9137,1.9138,1.914,1.9163,0,0,0,0,0,0,1.898,1.8986,1.8998,1.9007,1.9012,1.9048,1.9027,1.9027,1.9036,1.9034,1.9044,1.9044,1.9042,1.9068,1.9073,1.9089,1.9059,1.9135,1.9137,1.9139,1.9161,1.9165,1.9169,0,0,0,0,0,1.8978,1.9003,1.8999,1.9004,1.9028,1.9049,1.9052,1.9049,1.9038,1.905,1.9053,1.9044,1.9085,1.9071,1.9076,1.9093,1.9134,1.9137,1.9139,1.9159,1.9164,1.9169,0,0,0,0,0,0,1.8995,1.9004,1.8999,1.9028,1.9038,1.9046,1.9061,1.9055,1.9068,1.9065,1.9062,1.9064,1.909,1.9094,1.9078,1.9125,1.9108,1.9111,1.9121,1.9126,1.913,1.9129,1.9061,0,0,0,0,0,1.9002,1.9019,1.9026,1.9051,1.9056,1.9058,1.9067,1.9065,1.9074,1.9078,1.9083,1.9092,1.9107,1.9117,1.9131,1.9162,1.9164,1.9176,1.918,1.9183,1.9186,1.9204,1.9209,1.9149,1.9149,1.9149,0,0,1.9017,1.9024,1.9035,1.9055,1.9062,1.9079,1.9061,1.908,1.9093,1.908,1.9104,1.9108,1.9119,1.9147,1.9159,1.9151,1.9204,1.9187,1.9189,1.9191,1.9207,1.9213,1.9218,1.9151,1.9151,1.915,0,0,1.9053,1.906,1.9082,1.909,1.9101,1.9103,1.9108,1.9117,1.912,1.9144,1.9135,1.915,1.9176,1.9184,1.9191,1.9232,1.9224,1.9237,1.9258,1.9275,1.928,1.9284,1.9299,1.9304,1.924,1.924,1.924,0,1.907,1.9096,1.9094,1.9114,1.9123,1.9113,1.9136,1.9143,1.9158,1.9165,1.9155,1.9188,1.9194,1.9225,1.9235,1.9241,1.9247,1.9235,1.9279,1.9283,1.9287,1.9301,1.9307,1.9241,1.9241,1.9241,1.9241,0,1.9116,1.9134,1.915,1.9166,1.9177,1.9198,1.9199,1.921,1.9208,1.921,1.9235,1.9242,1.9258,1.9265,1.9262,1.9295,1.9289,1.928,1.9262,1.9295,1.9308,1.9313,1.9243,1.9243,1.9242,1.9242,0,0,1.9162,1.9178,1.9184,1.9191,1.9204,1.9218,1.9238,1.9254,1.9264,1.9275,1.9292,1.9315,1.9307,1.9315,1.9313,1.9328,1.936,1.9316,1.9317,1.9324,1.9397,1.9404,1.9411,1.9355,1.9356,1.9357,1.9397,0,1.9198,1.9235,1.9234,1.9268,1.9285,1.9277,1.9295,1.9305,1.9308,1.9323,1.9326,1.9342,1.933,1.9335,1.9349,1.9353,1.9375,1.935,1.9371,1.9372,1.9369,1.9417,1.9425,1.9461,1.9402,1.9402,1.9403,0,1.9245,1.9259,1.9295,1.9306,1.9313,1.9329,1.9345,1.9359,1.937,1.9371,1.9381,1.9377,1.9398,1.9381,1.941,1.9394,1.9402,1.9406,1.9407,1.9409,1.9389,1.942,1.9473,1.9478,1.9411,1.941,1.941,0,1.9276,1.9303,1.9328,1.9335,1.9348,1.936,1.9366,1.9376,1.9386,1.94,1.9406,1.9422,1.943,1.9442,1.9442,1.943,1.9472,1.9454,1.9473,1.9474,1.9482,1.9481,1.9537,1.9488,1.9488,1.9488,1.9488,0,1.9316,1.9338,1.9342,1.9357,1.9382,1.9382,1.9406,1.9411,1.942,1.9436,1.9431,1.9446,1.9445,1.9461,1.9461,1.9486,1.9489,1.9491,1.9491,1.9491,1.9491,1.9497,1.9494,1.9489,1.9489,1.9489,1.9489,0,1.9353,1.9357,1.9384,1.9395,1.9398,1.9416,1.9425,1.944,1.9443,1.9464,1.9469,1.9473,1.9492,1.9493,1.9514,1.9515,1.9544,1.9541,1.954,1.954,1.9559,1.9557,1.9619,1.9628,1.9574,1.9574,1.9575,0,1.9379,1.9396,1.9409,1.942,1.9427,1.9445,1.9455,1.9456,1.9467,1.9482,1.9495,1.9512,1.9527,1.9556,1.9561,1.9577,1.9575,1.9596,1.9577,1.9578,1.9575,1.9574,1.9576,1.9599,1.96,1.96,1.9601,0,1.9424,1.9425,1.9441,1.9458,1.9471,1.9484,1.9496,1.9505,1.9507,1.952,1.9539,1.955,1.9572,1.959,1.9606,1.9612,1.9607,1.9607,1.9612,1.9612,1.9611,1.9612,1.955,1.9605,1.9604,1.9604,1.9604,1.9604,1.9456,1.9471,1.9483,1.9501,1.9511,1.9523,1.9537,1.9543,1.9559,1.9577,1.9577,1.9598,1.9609,1.963,1.9638,1.9654,1.9647,1.9655,1.9657,1.9659,1.9661,1.9609,1.9657,1.9657,1.9657,1.9657,1.9657,0,1.95,1.9508,1.9525,1.9543,1.9557,1.9552,1.9566,1.9578,1.9597,1.9608,1.9623,1.9645,1.9663,1.967,1.9687,1.9699,1.9697,1.9704,1.9702,1.9704,1.9666,1.966,1.9705,1.9705,1.9705,1.9705,1.9705,1.9705,1.9525,1.9551,1.9554,1.9584,1.9592,1.9613,1.9621,1.9632,1.9641,1.9667,1.9682,1.9686,1.9696,1.9715,1.9731,1.9733,1.9739,1.9747,1.9748,1.9712,1.9707,1.9702,1.9696,1.9748,1.9748,1.9784,1.9785,1.9785]}]]